GFSMW_925_temp_105.txt.gz
Temp
23 21 20 20 20 20 17 16 15 15 14 14 15 14 14 14 14 14 14 14 14 14 14 13 14 13 13 12 11 11 12 11 12 12 11 11 12 12 12 13 13 13 12
22 22 20 19 18 18 16 15 15 14 14 14 14 14 14 14 14 14 14 14 14 14 14 14 13 13 12 12 12 11 11 11 11 13 13 11 11 12 12 12 12 12 12
20 20 20 19 18 16 15 15 15 13 14 14 14 13 13 13 13 13 13 14 14 14 14 14 12 12 11 11 11 11 12 11 11 13 15 13 13 13 12 12 12 12 12
19 19 19 19 18 16 15 14 14 13 14 13 13 13 14 14 13 13 14 14 14 14 13 13 12 11 11 11 11 11 12 12 11 12 13 14 13 15 13 12 12 12 11
18 18 18 19 18 16 15 14 13 13 13 13 13 13 13 13 12 12 13 13 13 14 13 13 12 11 11 12 12 12 12 13 12 12 12 14 13 14 15 16 13 12 12
17 18 18 18 18 15 15 14 12 13 12 13 12 12 12 13 13 12 11 12 13 13 13 13 12 12 11 11 11 11 11 12 12 13 14 13 14 13 14 15 14 13 11
17 18 18 18 18 17 15 14 13 13 12 12 12 12 12 12 12 11 11 11 12 12 13 12 12 12 11 12 11 11 11 12 13 13 14 15 15 15 15 15 14 15 13
17 18 18 17 17 18 15 14 13 13 12 12 11 12 12 12 12 12 11 11 12 12 12 12 12 11 11 10 10 11 12 12 13 13 14 15 16 16 16 15 16 15 14
17 17 18 17 17 17 15 14 13 13 12 11 11 11 12 12 13 11 11 11 11 11 12 12 12 11 10 10 10 11 12 12 12 12 14 15 15 15 15 15 15 16 16
17 17 17 18 16 16 15 13 13 12 12 11 12 11 11 12 12 11 10 11 11 11 11 12 12 11 11 10 10 11 11 11 11 12 13 13 13 15 15 15 15 15 15
15 16 17 16 14 14 15 14 13 13 12 11 11 11 11 11 11 11 11 11 11 11 11 11 11 11 10 10 10 10 10 11 11 11 12 11 13 13 14 14 14 13 14
15 14 14 13 14 15 14 13 13 13 12 11 11 10 10 11 11 11 11 11 11 10 10 11 11 10 10 10 9 9 9 10 10 11 11 11 11 12 14 13 13 14 14
15 12 12 11 13 14 13 13 12 12 11 11 10 10 10 10 11 10 10 11 11 11 10 10 10 10 10 10 10 10 10 10 11 12 10 11 11 11 12 12 12 14 14
13 11 10 10 10 13 13 13 12 12 11 11 10 10 10 10 10 10 10 10 10 10 10 11 10 10 10 10 10 10 10 10 10 10 10 11 11 12 11 12 13 13 12
11 10 9 8 8 9 12 12 12 12 12 11 11 10 10 10 10 10 10 10 10 11 11 10 10 10 10 10 10 10 10 10 10 10 10 10 12 12 12 12 12 12 12
9 8 7 6 6 6 8 12 12 12 12 11 11 11 10 10 10 10 10 10 10 11 10 10 10 10 10 10 10 10 10 10 10 10 10 11 11 11 11 12 12 12 11
7 6 6 5 4 5 6 8 11 12 12 11 11 11 11 10 10 10 10 10 11 11 11 10 10 10 10 11 11 11 11 10 10 10 10 11 11 11 11 11 11 11 10
6 5 4 3 2 3 4 5 10 12 12 12 12 11 11 11 11 11 11 11 11 10 10 10 11 10 11 11 11 11 11 11 11 11 11 11 11 11 11 10 8 7 6
4 3 2 2 1 2 2 3 3 4 5 5 5 6 9 11 11 11 11 11 11 10 10 10 10 10 10 11 11 11 10 10 10 10 10 10 10 10 10 9 6 2 -1
2 2 1 1 1 1 1 2 1 1 1 2 2 2 4 5 7 9 11 11 11 11 11 10 10 10 9 9 10 11 10 9 9 8 8 8 8 8 9 7 4 -2 -5
1 1 1 0 -0 -0 0 -0 -0 -1 -1 -0 -0 1 2 2 3 5 7 10 11 10 8 5 4 5 5 7 8 9 8 8 6 5 4 3 4 1 -1 -1 -2 -5 -6
-1 -1 0 -0 -1 -1 -1 -1 -1 -2 -2 -2 -1 -1 -1 -0 1 2 3 4 5 3 0 0 -1 -1 1 3 5 6 6 5 3 -1 -2 -3 -2 -2 -2 -4 -7 -7 -6
-2 -2 -1 -1 -2 -2 -2 -2 -2 -2 -2 -3 -3 -3 -2 -2 -2 -1 -1 -1 0 -1 -2 -2 -3 -3 -3 -3 -2 -1 -0 -1 -2 -4 -5 -6 -6 -7 -7 -7 -6 -6 -6
-2 -3 -2 -2 -3 -3 -3 -4 -3 -2 -2 -3 -3 -4 -4 -3 -3 -3 -3 -2 -2 -2 -2 -3 -3 -4 -5 -5 -6 -6 -6 -7 -7 -8 -7 -7 -7 -7 -7 -7 -7 -8 -9
-3 -3 -3 -3 -3 -4 -4 -4 -4 -3 -3 -3 -3 -4 -4 -4 -4 -4 -4 -4 -4 -4 -4 -4 -4 -5 -6 -6 -6 -6 -7 -7 -7 -7 -7 -8 -8 -9 -10 -10 -10 -10 -11
-4 -4 -4 -4 -4 -5 -5 -5 -5 -5 -3 -4 -4 -4 -4 -5 -5 -5 -5 -5 -5 -5 -5 -5 -5 -6 -6 -6 -6 -7 -7 -7 -5 -6 -8 -8 -8 -9 -10 -10 -11 -11 -12

GFSMW_925_temp_108.txt.gz
Temp
28 28 25 25 24 24 23 23 23 21 19 17 16 15 15 15 15 15 15 16 15 15 14 14 14 14 13 12 12 12 11 12 12 13 14 15 15 15 14 15 16 15 14
27 26 25 24 23 23 23 22 21 20 19 16 15 16 15 15 15 15 15 15 15 14 14 14 14 13 12 12 12 12 12 12 12 13 12 13 13 14 14 16 16 15 14
25 25 24 23 23 22 22 21 21 20 19 18 15 16 15 15 14 14 14 14 14 14 14 14 14 13 13 12 11 12 12 12 12 13 15 13 14 14 14 15 16 14 15
24 24 24 23 23 22 21 21 20 20 19 18 15 16 16 15 16 15 14 14 14 14 14 14 13 13 13 12 11 11 11 12 12 12 13 16 16 17 14 14 15 15 14
23 23 23 23 22 22 20 19 19 19 17 18 15 16 18 18 18 17 16 13 14 14 14 14 13 13 12 12 11 11 11 11 12 12 12 14 15 16 17 16 16 15 15
23 23 23 22 22 22 21 19 18 18 16 15 15 16 19 19 17 16 14 13 13 13 13 13 13 12 12 11 11 11 11 11 11 12 12 14 15 15 16 17 16 16 16
22 22 23 23 22 21 20 20 18 17 15 14 15 16 18 17 17 17 15 13 13 13 13 13 12 12 11 11 11 11 12 12 12 12 12 13 15 15 16 16 16 16 16
22 22 22 22 21 21 20 19 18 17 15 13 14 15 16 17 17 16 15 14 14 14 13 12 12 12 11 11 11 11 11 11 11 11 12 13 14 15 16 17 17 16 17
22 21 21 21 20 18 18 19 18 16 14 13 13 13 14 17 17 16 15 14 14 13 13 13 12 11 11 11 11 11 11 11 11 12 12 13 14 15 16 17 16 17 17
21 20 20 19 17 17 16 17 17 15 14 13 12 12 14 16 16 15 13 13 13 13 13 12 12 11 11 10 10 10 11 11 11 11 12 12 13 15 16 16 15 16 16
19 19 18 16 15 15 12 17 16 15 14 13 12 12 14 15 15 14 12 12 13 13 13 13 12 11 11 11 10 10 10 10 11 11 11 11 11 13 15 15 16 15 16
19 18 17 14 13 11 8 16 15 14 14 12 12 13 14 15 14 13 12 12 13 13 13 12 11 11 11 10 10 10 10 10 10 11 11 11 10 11 12 13 13 14 14
17 17 16 14 11 9 8 13 14 14 13 12 12 12 12 14 13 13 12 12 13 13 12 12 11 11 11 10 10 10 10 10 11 10 11 11 10 10 12 11 12 12 13
15 13 12 12 9 7 6 7 13 13 12 12 12 11 11 12 13 13 12 12 12 12 11 11 11 11 11 10 10 10 9 9 10 10 10 10 11 11 11 10 11 13 13
12 10 9 9 7 6 5 6 12 12 11 11 11 11 11 12 13 13 12 12 12 12 12 11 11 11 11 10 10 10 9 9 10 10 10 11 11 11 11 11 11 12 12
9 9 7 6 5 4 4 5 11 12 11 11 11 11 11 11 12 13 12 12 12 12 12 11 11 11 11 11 10 10 10 10 10 10 10 10 10 10 11 11 11 10 10
7 7 5 4 3 3 3 3 6 12 11 11 11 11 12 11 11 12 12 12 12 12 12 12 11 11 11 11 10 10 10 10 10 10 10 10 10 10 10 10 10 10 11
5 5 4 2 1 1 2 2 6 11 10 10 11 11 11 12 12 12 12 12 13 13 13 12 12 11 11 11 10 10 10 10 10 10 10 10 10 10 10 10 10 9 8
3 2 2 1 -0 0 1 1 2 3 4 4 4 5 7 9 11 11 12 12 12 12 12 12 12 11 10 11 11 10 10 11 11 11 10 11 10 11 10 10 7 2 -0
1 1 1 -0 -1 -0 0 0 0 0 1 1 1 2 3 5 6 8 10 11 12 11 11 10 10 10 9 10 10 10 9 9 10 11 10 11 11 11 10 8 5 -1 -5
-0 -0 0 -0 -1 -1 0 -0 -0 -1 -1 -0 -0 -0 1 2 3 4 6 8 10 9 6 5 4 5 5 6 8 9 9 8 8 5 4 5 7 7 4 4 1 -3 -5
-1 -1 -1 -1 -2 -2 -0 -0 -1 -1 -0 -1 -1 -1 -1 -1 0 1 2 2 3 1 -0 -0 -1 -1 -0 2 5 6 7 6 5 1 -0 -1 1 0 0 -1 -3 -4 -4
-2 -2 -2 -2 -2 -2 -2 -1 -1 -1 -2 -2 -2 -2 -2 -2 -2 -1 -1 -1 -1 -1 -2 -3 -4 -4 -4 -3 -2 -1 -0 -0 -2 -4 -5 -6 -6 -6 -7 -8 -7 -6 -7
-3 -3 -3 -3 -3 -3 -2 -3 -1 -1 -1 -2 -2 -3 -4 -4 -3 -3 -3 -2 -2 -3 -3 -4 -5 -5 -6 -5 -5 -6 -6 -7 -7 -7 -7 -7 -7 -7 -7 -6 -6 -7 -8
-3 -4 -4 -4 -4 -4 -3 -3 -2 -1 -1 -1 -2 -2 -3 -4 -4 -5 -4 -4 -4 -4 -4 -5 -5 -5 -6 -6 -6 -6 -6 -6 -6 -6 -6 -6 -6 -6 -7 -7 -8 -8 -8
-3 -4 -4 -4 -5 -5 -5 -5 -4 -2 -1 -2 -3 -3 -3 -4 -4 -4 -5 -5 -5 -5 -5 -5 -5 -6 -6 -6 -6 -6 -6 -5 -5 -4 -5 -5 -5 -5 -6 -7 -7 -8 -8

GFSMW_925_temp_114.txt.gz
Temp
30 31 30 30 30 29 28 28 28 26 24 23 22 22 22 21 21 20 20 18 17 17 17 17 17 18 17 16 16 14 14 14 14 14 13 13 14 14 16 16 15 15 15
30 30 30 28 28 28 27 27 27 26 25 23 22 22 22 21 20 20 20 19 17 17 16 16 17 17 16 15 14 14 13 13 13 14 13 13 13 14 15 16 16 15 15
29 29 29 27 27 26 26 26 26 26 26 25 24 23 20 18 18 18 19 19 19 18 17 16 17 17 16 15 14 13 13 13 13 13 14 13 13 13 15 15 15 15 15
28 29 28 25 26 26 25 24 24 24 25 25 24 21 18 17 17 17 17 18 18 18 17 17 16 15 15 14 14 14 13 13 13 13 13 13 14 13 13 16 15 15 15
27 28 27 27 26 26 25 24 23 23 23 24 24 20 18 19 18 16 16 17 18 17 17 16 15 14 14 14 14 13 13 12 13 13 12 13 13 13 14 13 15 15 15
26 25 26 26 26 26 24 23 23 23 23 23 23 21 18 18 18 17 16 16 17 17 17 16 16 14 14 14 13 13 12 12 12 13 13 13 13 13 14 13 14 14 15
25 24 25 25 24 23 23 22 22 21 22 22 22 22 19 17 18 19 18 17 16 16 16 15 14 14 14 14 13 13 12 12 12 12 12 12 13 13 13 14 13 14 15
24 24 24 22 21 20 19 18 18 18 20 19 21 21 20 17 18 18 20 17 16 15 15 14 14 14 13 13 13 12 12 12 11 11 12 12 12 13 14 14 14 13 15
24 23 22 21 19 18 18 16 16 16 18 17 18 20 19 17 17 18 19 18 17 16 15 14 14 13 13 13 13 12 12 12 11 11 12 12 12 13 13 14 14 15 13
23 22 20 19 19 18 16 15 14 14 14 13 15 18 17 17 16 17 18 18 18 17 15 14 13 13 13 13 12 12 12 11 11 11 12 12 12 13 13 13 13 14 16
20 19 19 18 17 16 15 14 12 11 10 11 13 17 16 16 16 16 18 18 17 17 14 13 13 13 13 12 12 12 12 11 11 11 11 12 12 12 12 12 12 14 14
17 17 17 16 15 15 14 12 10 9 8 8 14 16 15 16 15 16 17 17 16 16 15 14 13 13 12 12 12 12 11 11 11 11 11 11 11 11 11 12 12 12 14
15 15 15 14 13 12 12 10 9 7 6 7 11 14 14 15 14 15 16 16 16 15 15 14 13 12 12 12 11 11 11 11 11 11 11 11 11 11 11 11 12 12 13
13 13 12 11 10 9 8 7 6 6 5 6 10 13 13 13 14 14 15 15 16 15 15 14 13 12 11 12 11 11 11 11 11 11 11 11 11 11 11 11 11 12 11
11 11 10 8 8 7 5 5 4 4 3 4 8 12 13 13 13 13 14 15 14 15 14 13 13 12 11 11 11 11 11 10 10 11 11 11 11 11 11 10 10 11 11
9 8 7 6 5 4 3 3 3 2 3 4 8 12 12 13 13 13 14 14 14 14 13 13 13 12 11 11 11 11 10 10 10 10 10 11 11 11 11 11 10 11 11
7 5 4 3 3 2 1 2 2 2 2 5 10 12 12 12 12 13 13 13 13 13 13 12 12 12 12 11 11 10 10 10 10 10 10 10 10 10 10 10 10 10 10
5 3 3 1 1 0 -0 0 1 1 1 1 3 9 12 12 12 12 12 12 13 13 13 13 13 12 12 11 10 10 10 10 10 10 10 10 10 10 10 9 9 9 9
3 2 1 0 -1 -1 -1 -0 -0 -0 -0 -1 0 2 6 11 12 12 12 12 12 12 13 12 12 12 11 11 10 10 10 10 10 10 9 10 10 10 9 9 8 6 5
1 0 -0 -1 -1 -2 -1 -1 -1 -1 -1 -1 -1 -0 2 6 9 11 12 12 11 9 9 8 8 7 8 10 10 10 10 10 10 9 9 10 10 9 10 9 8 5 1
-0 -0 0 -1 -2 -2 -2 -1 -1 -2 -2 -2 -1 -0 0 0 3 6 8 9 8 6 4 4 3 4 5 6 9 10 9 9 7 6 6 6 8 9 8 8 7 4 -1
-1 -2 -2 -2 -3 -3 -2 -1 -1 -2 -2 -2 -2 -2 -0 -0 -1 1 1 2 2 1 -1 -2 -2 -2 -1 2 4 7 8 7 6 0 -0 -0 3 3 4 3 1 -1 -1
-2 -2 -3 -3 -3 -4 -3 -2 -2 -2 -2 -3 -3 -3 -2 -1 -0 -1 -1 -1 -2 -2 -3 -4 -4 -5 -5 -4 -2 -1 1 1 -0 -3 -4 -4 -3 -3 -5 -5 -4 -3 -4
-2 -2 -3 -3 -4 -4 -3 -3 -2 -2 -3 -3 -3 -4 -4 -4 -3 -2 -1 -3 -3 -3 -4 -4 -5 -5 -5 -5 -5 -5 -5 -5 -5 -5 -5 -5 -6 -6 -6 -5 -5 -5 -5
-1 -3 -3 -3 -4 -4 -4 -4 -3 -2 -3 -3 -3 -4 -5 -5 -5 -5 -4 -4 -4 -4 -4 -4 -4 -4 -5 -5 -5 -5 -5 -5 -5 -5 -5 -5 -6 -6 -6 -6 -6 -6 -7
-1 -2 -3 -3 -4 -5 -5 -4 -4 -3 -3 -3 -3 -3 -4 -5 -5 -6 -5 -5 -5 -5 -5 -4 -4 -4 -4 -4 -4 -4 -4 -4 -4 -4 -4 -5 -5 -5 -6 -6 -6 -6 -6

GFSMW_925_temp_117.txt.gz
Temp
26 27 28 29 29 29 28 27 23 22 22 22 22 22 22 22 22 21 21 19 19 19 19 18 19 18 18 17 16 15 16 15 14 14 14 14 14 14 14 14 13 14 14
24 27 27 27 28 26 26 26 24 23 22 22 22 21 22 22 21 21 21 20 19 18 18 18 18 17 17 17 16 16 15 14 15 14 14 13 13 13 13 13 14 14 14
24 25 23 22 25 25 26 25 25 23 23 23 23 21 21 21 20 20 20 19 19 19 18 18 17 17 17 17 16 15 14 13 14 14 14 13 13 13 13 13 14 14 14
24 25 22 20 23 25 25 24 24 24 23 22 22 22 21 19 20 19 20 19 18 18 19 18 17 17 16 17 17 15 14 13 13 13 14 14 14 13 12 12 13 14 14
24 23 22 22 25 24 23 23 23 23 23 23 22 21 21 21 20 18 18 19 19 18 17 17 17 16 16 16 17 16 13 13 13 13 13 12 13 14 13 13 12 13 13
22 23 22 20 18 18 18 18 19 19 20 20 21 21 20 20 18 17 17 17 18 18 17 17 17 16 16 15 14 14 13 13 13 13 13 13 13 13 14 13 13 13 13
22 20 19 17 17 16 16 16 16 16 18 18 18 18 19 20 18 18 16 16 17 17 16 16 16 16 15 14 13 14 13 13 13 13 12 12 13 13 14 13 12 13 13
20 18 17 16 16 15 15 15 15 14 14 15 15 16 17 17 18 18 17 16 16 16 17 16 15 15 15 14 13 13 13 13 12 12 12 12 12 13 13 13 13 11 12
18 17 17 16 15 15 14 14 13 13 12 12 12 13 13 15 17 18 18 18 16 16 17 16 15 15 15 14 13 13 13 13 12 12 12 12 12 12 12 12 13 14 12
17 16 15 15 14 14 13 12 11 10 10 9 8 9 10 13 16 18 19 18 17 15 15 16 15 14 14 14 13 13 13 12 12 12 12 12 12 12 12 12 12 12 13
14 14 13 13 12 11 11 10 9 8 8 7 7 7 10 12 14 18 18 17 16 15 16 16 15 14 13 13 14 12 12 12 12 11 11 11 12 12 12 11 12 13 12
12 12 11 10 9 9 9 7 6 6 5 5 5 6 9 13 15 17 17 17 16 16 16 16 14 13 13 13 13 12 12 12 11 11 11 11 11 12 11 11 11 12 12
11 10 9 8 8 7 6 5 5 4 4 4 4 5 8 13 15 16 16 16 16 15 16 15 14 13 13 12 12 12 12 11 11 11 11 11 11 11 11 11 11 12 12
9 8 7 6 5 5 4 3 3 3 3 3 3 4 7 12 15 15 15 15 15 15 15 15 15 13 12 12 12 12 12 11 11 11 11 11 11 11 11 11 11 11 11
7 6 5 5 4 3 2 2 2 2 2 2 3 4 6 11 13 14 14 14 14 15 15 15 13 13 12 12 12 11 11 11 11 11 11 11 11 11 11 11 11 11 11
6 5 4 4 2 1 1 1 1 1 1 2 2 3 7 11 12 13 14 13 14 15 14 14 13 12 12 12 11 11 11 11 11 11 11 11 11 11 11 11 11 11 10
4 3 3 2 1 0 -0 -0 0 0 0 1 1 2 3 12 12 13 13 13 13 14 14 13 12 12 12 12 11 11 11 11 10 10 10 11 11 11 10 10 10 10 10
3 2 1 0 -1 -1 -1 -1 -0 -0 -1 -0 -0 1 1 5 12 12 12 12 13 13 13 12 12 12 12 11 11 10 10 10 10 10 10 10 10 10 10 9 9 9 9
1 1 0 -1 -1 -1 -1 -1 -1 -1 -1 -1 -1 -1 0 2 11 12 12 12 12 12 11 11 12 11 11 10 10 10 10 10 9 9 10 10 10 10 10 9 9 7 7
-0 -1 -0 -1 -2 -2 -2 -1 -1 -2 -2 -2 -2 -1 -0 0 3 11 12 12 10 9 9 8 9 8 10 10 10 10 10 10 9 8 9 9 9 10 10 9 9 6 3
-1 -2 -2 -2 -3 -3 -3 -2 -2 -2 -3 -3 -3 -2 -1 0 0 3 8 9 6 5 2 3 2 4 6 8 10 10 10 9 7 6 6 7 9 9 9 9 8 6 2
-2 -2 -2 -3 -3 -3 -3 -3 -2 -3 -3 -3 -4 -3 -2 -0 0 -1 0 1 1 0 -1 -1 -2 -1 0 4 7 9 9 7 7 2 1 1 5 6 5 5 3 1 -1
-3 -3 -3 -3 -4 -4 -4 -3 -3 -3 -3 -4 -4 -5 -4 -2 -1 -1 -2 -2 -2 -2 -3 -4 -5 -5 -4 -3 -2 2 3 1 0 -2 -4 -4 -3 -2 -3 -3 -2 -2 -2
-3 -3 -4 -4 -4 -4 -4 -4 -3 -3 -3 -3 -4 -5 -5 -4 -4 -3 -3 -3 -3 -4 -4 -4 -5 -5 -5 -5 -4 -4 -4 -4 -4 -5 -5 -5 -5 -5 -5 -4 -4 -4 -5
-3 -4 -4 -4 -5 -5 -4 -4 -4 -3 -3 -3 -4 -5 -5 -5 -4 -4 -4 -4 -4 -4 -4 -4 -4 -4 -5 -5 -5 -5 -5 -5 -5 -5 -5 -5 -6 -6 -6 -6 -7 -6 -6
-4 -4 -5 -5 -5 -5 -5 -4 -4 -4 -4 -3 -4 -4 -4 -5 -5 -5 -5 -4 -4 -4 -4 -4 -4 -4 -4 -4 -4 -4 -4 -4 -4 -5 -5 -6 -6 -7 -7 -7 -7 -7 -7

GFSMW_925_temp_123.txt.gz
Temp
22 23 27 26 26 26 24 23 21 22 20 19 18 18 18 19 19 20 20 20 20 20 19 19 18 18 18 17 17 16 16 15 15 15 14 14 14 14 14 14 14 14 14
20 21 23 26 26 23 25 23 23 22 20 19 19 19 18 18 19 20 20 20 20 20 19 19 18 18 18 17 17 17 15 15 15 15 14 14 13 14 14 14 13 13 13
21 22 22 22 24 23 22 23 23 22 21 19 19 19 18 19 18 18 19 19 19 19 19 19 19 18 19 18 18 16 15 15 14 15 16 13 13 13 13 13 13 13 13
19 20 17 16 15 15 18 18 19 19 18 19 18 19 18 18 20 21 21 21 20 19 19 19 19 19 18 18 18 17 16 15 14 14 15 15 14 13 13 13 13 13 13
16 14 14 14 13 13 13 15 16 16 17 18 18 17 17 17 17 19 19 20 20 19 19 19 19 19 19 18 18 17 15 15 15 14 14 13 14 14 12 13 13 13 13
14 14 14 13 12 12 12 13 13 13 15 16 16 16 17 16 16 16 17 18 18 18 19 19 19 20 19 18 17 18 17 15 15 15 15 14 14 13 12 12 13 13 12
14 13 11 11 10 10 10 10 10 10 11 13 14 15 15 15 16 16 15 16 16 17 17 17 18 18 19 18 17 17 17 15 14 15 14 15 14 14 13 13 12 12 12
11 10 10 10 9 8 8 8 8 8 9 11 12 12 13 13 14 14 14 14 15 16 18 19 18 18 18 17 16 16 16 15 15 14 14 15 14 13 13 13 13 12 11
9 9 9 8 7 7 6 6 6 6 6 7 9 11 12 12 12 13 13 13 14 15 16 17 17 19 19 18 16 15 15 14 14 14 14 13 13 12 13 13 13 13 12
8 8 8 6 6 5 5 5 4 4 4 5 5 5 6 8 8 9 10 11 13 13 14 15 16 16 17 16 15 14 15 14 13 13 13 12 12 13 12 12 12 13 13
6 6 6 5 4 4 3 3 3 3 3 3 3 4 4 5 5 7 8 9 11 12 13 14 16 16 14 14 14 14 14 14 13 13 12 12 12 12 12 12 12 12 12
6 5 5 4 4 3 2 2 1 1 2 3 3 4 4 4 5 5 7 8 10 12 12 14 15 15 14 14 14 14 13 13 13 13 12 12 12 12 12 12 11 11 11
5 4 4 3 3 2 1 1 1 1 1 1 1 2 2 2 3 4 5 8 10 12 13 14 14 14 14 14 14 13 13 13 13 12 11 12 12 12 12 12 11 11 11
4 4 3 2 2 1 1 0 1 0 -0 0 0 1 1 1 1 3 4 6 9 11 13 14 14 15 14 14 13 13 13 13 12 12 12 12 12 12 12 11 11 11 11
3 3 2 2 1 0 0 -0 0 -0 -1 -1 -1 -0 0 0 1 2 3 6 8 11 13 14 14 14 14 13 13 13 13 12 12 12 12 12 12 12 12 11 11 11 11
3 2 2 1 0 -0 -1 -1 -1 -1 -1 -1 -1 -1 -1 -0 0 1 2 4 7 11 13 13 13 13 13 13 13 13 12 12 12 12 12 12 12 12 11 11 11 11 11
2 1 1 -0 -1 -2 -2 -2 -1 -1 -1 -1 -2 -2 -2 -1 -1 0 2 3 6 10 12 13 13 13 13 13 13 12 12 12 12 11 11 11 11 11 11 11 11 11 11
0 0 -1 -2 -2 -3 -3 -2 -2 -2 -2 -2 -3 -3 -3 -2 -1 -0 1 2 4 8 13 13 13 12 12 13 13 12 11 11 11 11 11 11 11 11 11 11 10 10 10
-1 -1 -2 -3 -3 -4 -3 -3 -2 -3 -3 -3 -4 -4 -4 -3 -2 -1 -0 1 3 7 12 12 12 12 12 13 12 11 11 11 11 11 11 11 11 11 11 10 9 7 8
-2 -3 -3 -4 -4 -4 -4 -3 -3 -3 -3 -4 -5 -5 -4 -3 -3 -2 -1 -0 3 8 12 11 11 11 12 11 11 11 10 10 10 9 10 10 10 10 10 10 8 6 5
-3 -3 -3 -4 -4 -4 -4 -4 -4 -3 -3 -4 -5 -5 -5 -4 -3 -3 -2 -1 1 2 6 8 7 9 10 11 10 10 10 10 8 8 8 9 9 10 9 9 8 8 6
-4 -5 -5 -4 -4 -4 -4 -4 -4 -4 -4 -4 -5 -5 -5 -4 -4 -3 -3 -2 0 0 -0 0 2 3 5 9 9 10 11 9 9 7 6 7 9 7 7 7 7 6 5
-5 -5 -6 -6 -6 -5 -5 -4 -5 -4 -4 -5 -5 -5 -5 -4 -4 -4 -3 -3 -2 -2 -2 -2 -1 -2 -0 1 6 8 8 8 6 3 1 2 4 4 3 2 2 2 2
-6 -6 -7 -6 -6 -6 -5 -5 -5 -5 -4 -5 -5 -5 -6 -5 -5 -5 -4 -4 -3 -3 -3 -3 -3 -3 -2 -4 -3 -1 -1 -1 1 -1 -1 -1 -1 -0 -2 -2 -2 -1 -2
-6 -7 -7 -7 -7 -6 -6 -5 -5 -5 -4 -4 -5 -5 -5 -6 -5 -5 -5 -5 -4 -4 -4 -4 -3 -3 -3 -4 -4 -4 -3 -4 -4 -4 -4 -4 -4 -5 -5 -5 -4 -4 -4
-7 -7 -7 -7 -7 -6 -6 -6 -5 -5 -5 -5 -6 -6 -6 -6 -6 -6 -6 -6 -6 -5 -5 -5 -5 -5 -5 -5 -5 -5 -5 -5 -4 -5 -6 -6 -6 -7 -7 -7 -7 -6 -6